星链-5555 (STARLINK-5555 )

导读 | 豆包AI

STARLINK-5555是美国SpaceX公司星链(Starlink)项目的卫星,于2023年1月26日发射升空,属于星链互联网卫星星座的组成部分。星链项目旨在通过大规模低轨卫星群,为全球提供高速低延迟的宽带互联网服务,该卫星入轨后,进一步扩充了星链星座的在轨规模,提升星座服务覆盖能力与网络稳定性。

基本信息
目录编号:
55386
目录名称:
STARLINK-5555
国际标识:
2023-013BH
轨道中心:
EARTH
卫星名称:
星链-5555
卫星全名:
星链-5555 (STARLINK-5555 )
卫星状态:
在轨 (已飞行1190 天)
发射日期:
2023-01-26 UTC
国别 :
美国 (US)
星等 :
--
轨道信息
数据来源 国际轨道数据
星历时间: 2026-04-30T10:38:18+0800
9小时前
查看轨道信息
半长轴: 6861.212km
偏心率: 0.0000768
轨道倾角: 43.003°
近地点辐角 263.924°
升交点赤经 28.016°
平近点角 96.153°
近地点: 482.548km
远地点: 483.602km
周期: 94.267分钟
每日圈数: 15.275714
详细信息
固有亮度:
5
最大亮度:
2.5
卫星平台:
Starlink v1.5
覆盖范围:
全球
运营商:
太空探索技术公司
运营商所在国:
美国
制造商(研发单位):
太空探索技术公司
制造商所在国:
美国
使用方式:
暂无
卫星简介
星链(Starlink)计划是由太空探索技术公司(SpaceX)提出的一个巨型低轨卫星互联网星座项目,计划在2019年至2024年间在太空搭建由约1.2万颗卫星组成的“星链”网络,其中1584颗将部署在地球上空550千米处的近地轨道,并从2020年开始工作。该卫星仍在工作。
2D轨道图
3D轨道图
轨道高度分析图
轨道倾角分析图
轨道综合分析图
查看轨道综合分析图